Location: Hamilton
(37.7830°S, 175.2830°E)
Time: 13:08:47
(UTC+12:00)

Hubble Space Telescope - Visible Passes

Search period start: 13 August 2022 00:00
Search period end: 23 August 2022 00:00
Orbit: 532 x 535 km, 28.5° (Epoch: 12 August)

Date Brightness Start Highest point End Pass type
(mag) Time Alt. Az. Time Alt. Az. Time Alt. Az.
13 Aug 3.0 05:51:59 10° NW 05:54:52 18° N 05:57:46 10° NE visible
14 Aug 2.8 05:40:24 13° NNW 05:42:45 20° N 05:45:47 10° NE visible
15 Aug 2.6 05:29:07 17° NNW 05:30:36 21° N 05:33:45 10° NE visible
16 Aug 2.5 05:17:46 21° NNW 05:18:28 22° N 05:21:41 10° NE visible
17 Aug 2.5 05:06:24 22° N 05:06:24 22° N 05:09:35 10° NE visible
18 Aug 2.7 04:55:01 21° NNE 04:55:01 21° NNE 04:57:27 10° NE visible
18 Aug 3.0 06:32:09 10° NW 06:34:41 16° NNW 06:37:13 10° NNE visible
19 Aug 3.0 04:43:38 18° NNE 04:43:38 18° NNE 04:45:16 10° NE visible
19 Aug 3.1 06:20:20 10° NW 06:22:31 14° NNW 06:24:42 10° NNE visible
20 Aug 3.4 04:32:16 14° NE 04:32:16 14° NE 04:33:04 10° NE visible
20 Aug 3.1 06:08:41 10° NW 06:10:20 12° NNW 06:11:59 10° N visible
21 Aug 3.2 05:57:39 10° NNW 05:58:09 10° NNW 05:58:38 10° NNW visible
